Powrót do katalogu

COSMOS 1275 DEB

AktywnyPO
NORAD 42159·DEBRIS·🇷🇺 Russia

Wystrzelony Jun 4, 1981 z Plesetsk Cosmodrome

Loading…

Następne Przeloty (najbliższe 24 godziny)

TLE

Starzejące sięSource: Space-Track

Epoka: Sep 10, 2026, 14:29 UTC

1 42159U 81053RX  26253.60405455  .00000903  00000-0  79814-3 0  9999
2 42159  82.8249  17.4628 0067506 204.2757 155.5219 13.83060610610514

Śledź COSMOS 1275 DEB w czasie rzeczywistym z AllMySat

Download on the App Store